Weather History for Comanche, TX

Change the Weather History Date:

Monday, January 20, 2014

  Actual Average (KSEP) Record (KSEP)
Temperature  
Mean Temperature 61 °F -  
Max Temperature 72 °F 54 °F 82 °F (1986)
Min Temperature 50 °F 31 °F 9 °F (1963)
Degree Days  
Heating Degree Days 4    
Growing Degree Days 11 (Base 50)    
Moisture  
Dew Point 28 °F    
Average Humidity 33    
Maximum Humidity 53    
Minimum Humidity 13    
Precipitation  
Precipitation 0.00 in - - ()
Sea Level Pressure  
Sea Level Pressure 30.00 in    
Wind  
Wind Speed 15 mph (West)    
Max Wind Speed 26 mph    
Max Gust Speed 33 mph    
Visibility 10 miles    
Events      
Averages and records for this station are not official NWS values.
T = Trace of Precipitation, MM = Missing Value Source: NWS Daily Summary

Daily Weather History Graph

Daily Weather History Graph

Search for Another Location

Airport:

Trip Planner

Search our weather history database for the weather conditions in past years. The results will help you decide how hot, cold, wet, or windy it might be!

Date:

Astronomy

Jan. 20, 2014 Rise Set
Actual Time 7:33 AM CST 5:57 PM CST
Civil Twilight 7:07 AM CST 6:23 PM CST
Nautical Twilight 6:37 AM CST 6:53 PM CST
Astronomical Twilight 6:08 AM CST 7:22 PM CST
Moon 10:14 PM CST (1/20) 9:51 AM CST (1/20)
Length of Visible Light 11h 16m
Length of Day
10h 23m
Waning Gibbous, 82% of the Moon is Illuminated
Jan 20
Waning Gibbous
Jan 23
Last Quarter
Jan 30
New
Feb 6
First Quarter
Feb 14
Full

Hourly Weather History & Observations

Time (CST) Temp. Dew Point Humidity Pressure Visibility Wind Dir Wind Speed Gust Speed Precip Events Conditions
12:15 AM 51.3 °F 27.0 °F 39% 30.05 in 10.0 mi SSW 11.5 mph - N/A   Clear
12:35 AM 52.9 °F 27.5 °F 38% 30.04 in 10.0 mi SW 10.4 mph - N/A   Clear
12:55 AM 53.2 °F 28.2 °F 38% 30.03 in 10.0 mi SSW 13.8 mph - N/A   Clear
1:15 AM 52.7 °F 28.8 °F 40% 30.02 in 10.0 mi SSW 12.7 mph - N/A   Clear
1:35 AM 52.7 °F 29.3 °F 41% 30.01 in 10.0 mi SSW 13.8 mph - N/A   Clear
1:55 AM 51.4 °F 30.0 °F 44% 30.00 in 10.0 mi SSW 12.7 mph - N/A   Clear
2:15 AM 53.2 °F 30.0 °F 41% 29.99 in 10.0 mi SSW 17.3 mph 20.7 mph N/A   Clear
2:35 AM 54.1 °F 29.8 °F 39% 29.98 in 10.0 mi SW 17.3 mph 24.2 mph N/A   Clear
2:55 AM 53.6 °F 30.0 °F 41% 29.97 in 10.0 mi SSW 16.1 mph - N/A   Clear
3:15 AM 53.6 °F 30.2 °F 41% 29.97 in 10.0 mi SSW 15.0 mph - N/A   Clear
3:35 AM 53.8 °F 30.2 °F 41% 29.97 in 10.0 mi SW 16.1 mph 23.0 mph N/A   Clear
3:55 AM 53.6 °F 30.4 °F 41% 29.96 in 10.0 mi SW 17.3 mph 23.0 mph N/A   Clear
4:15 AM 53.2 °F 30.7 °F 42% 29.95 in 10.0 mi SW 19.6 mph 24.2 mph N/A   Clear
4:35 AM 52.9 °F 30.9 °F 43% 29.95 in 10.0 mi SW 17.3 mph 23.0 mph N/A   Clear
4:55 AM 51.8 °F 31.1 °F 45% 29.95 in 10.0 mi SW 15.0 mph 20.7 mph N/A   Clear
5:15 AM 51.8 °F 31.5 °F 46% 29.94 in 10.0 mi SW 17.3 mph 23.0 mph N/A   Clear
5:35 AM 51.8 °F 32.0 °F 47% 29.94 in 10.0 mi SW 17.3 mph 24.2 mph N/A   Clear
5:55 AM 51.4 °F 32.0 °F 47% 29.93 in 10.0 mi SW 16.1 mph 21.9 mph N/A   Clear
6:15 AM 51.1 °F 32.0 °F 48% 29.94 in 10.0 mi SW 15.0 mph - N/A   Clear
6:35 AM 51.1 °F 32.5 °F 49% 29.94 in 10.0 mi SW 16.1 mph 23.0 mph N/A   Clear
6:55 AM 51.1 °F 33.3 °F 51% 29.92 in 10.0 mi SW 20.7 mph 26.5 mph N/A   Clear
7:15 AM 52.2 °F 34.7 °F 51% 29.94 in 10.0 mi SW 17.3 mph 23.0 mph N/A   Clear
7:35 AM 52.0 °F 34.7 °F 52% 29.94 in 10.0 mi SW 16.1 mph 24.2 mph N/A   Clear
7:55 AM 51.4 °F 34.9 °F 53% 29.93 in 10.0 mi SW 19.6 mph 24.2 mph N/A   Clear
8:15 AM 52.2 °F 35.6 °F 53% 29.93 in 10.0 mi SW 19.6 mph 24.2 mph N/A   Clear
8:35 AM 53.8 °F 36.5 °F 52% 29.94 in 10.0 mi SW 18.4 mph 23.0 mph N/A   Clear
8:55 AM 55.4 °F 36.9 °F 50% 29.93 in 10.0 mi SW 18.4 mph 25.3 mph N/A   Clear
9:15 AM 57.2 °F 37.6 °F 48% 29.93 in 10.0 mi SW 21.9 mph 26.5 mph N/A   Clear
9:35 AM 58.3 °F 38.3 °F 47% 29.93 in 10.0 mi SW 23.0 mph 33.4 mph N/A   Clear
9:55 AM 59.5 °F 38.3 °F 45% 29.93 in 10.0 mi SW 21.9 mph 29.9 mph N/A   Clear
10:15 AM 60.8 °F 37.2 °F 42% 29.93 in 10.0 mi SW 19.6 mph 29.9 mph N/A   Clear
10:35 AM 63.0 °F 36.0 °F 37% 29.93 in 10.0 mi WSW 24.2 mph 33.4 mph N/A   Clear
10:55 AM 64.4 °F 34.9 °F 33% 29.93 in 10.0 mi WSW 20.7 mph 28.8 mph N/A   Clear
11:15 AM 65.8 °F 34.3 °F 31% 29.94 in 10.0 mi WSW 21.9 mph 27.6 mph N/A   Clear
11:35 AM 66.4 °F 32.2 °F 28% 29.94 in 10.0 mi WSW 15.0 mph 27.6 mph N/A   Clear
11:55 AM 67.6 °F 31.1 °F 26% 29.93 in 10.0 mi West 18.4 mph 25.3 mph N/A   Clear
12:15 PM 67.8 °F 32.0 °F 26% 29.92 in 10.0 mi WSW 16.1 mph - N/A   Clear
12:35 PM 69.6 °F 29.5 °F 22% 29.91 in 10.0 mi WSW 13.8 mph - N/A   Clear
12:55 PM 70.7 °F 28.9 °F 21% 29.90 in 10.0 mi West 15.0 mph 23.0 mph N/A   Clear
1:15 PM 70.5 °F 26.4 °F 19% 29.90 in 10.0 mi West 16.1 mph 24.2 mph N/A   Clear
1:35 PM 70.7 °F 26.6 °F 19% 29.89 in 10.0 mi WNW 10.4 mph 19.6 mph N/A   Clear
1:55 PM 71.6 °F 25.5 °F 18% 29.89 in 10.0 mi WNW 10.4 mph 19.6 mph N/A   Clear
2:15 PM 71.6 °F 25.2 °F 18% 29.89 in 10.0 mi WNW 15.0 mph 20.7 mph N/A   Clear
2:35 PM 71.2 °F 25.5 °F 18% 29.89 in 10.0 mi WNW 11.5 mph 23.0 mph N/A   Clear
2:55 PM 72.5 °F 24.6 °F 17% 29.90 in 10.0 mi WNW 12.7 mph 19.6 mph N/A   Clear
3:15 PM 72.7 °F 19.9 °F 14% 29.91 in 10.0 mi NW 17.3 mph 25.3 mph N/A   Clear
3:35 PM 72.5 °F 19.4 °F 13% 29.91 in 10.0 mi NW 13.8 mph 19.6 mph N/A   Clear
3:55 PM 72.9 °F 19.4 °F 13% 29.92 in 10.0 mi NNW 15.0 mph 23.0 mph N/A   Clear
4:15 PM 71.4 °F 18.3 °F 13% 29.94 in 10.0 mi North 21.9 mph 25.3 mph N/A   Clear
4:35 PM 70.5 °F 18.5 °F 14% 29.95 in 10.0 mi NNW 19.6 mph 25.3 mph N/A   Clear
4:55 PM 69.8 °F 19.0 °F 15% 29.96 in 10.0 mi North 16.1 mph - N/A   Clear
5:15 PM 68.0 °F 19.2 °F 16% 29.97 in 10.0 mi North 16.1 mph 24.2 mph N/A   Clear
5:35 PM 66.6 °F 19.6 °F 17% 29.99 in 10.0 mi North 16.1 mph 19.6 mph N/A   Clear
5:55 PM 64.9 °F 19.6 °F 18% 30.01 in 10.0 mi North 15.0 mph 20.7 mph N/A   Clear
6:15 PM 61.7 °F 20.3 °F 20% 30.03 in 10.0 mi NNW 8.1 mph - N/A   Clear
6:35 PM 61.0 °F 20.1 °F 21% 30.04 in 10.0 mi North 6.9 mph - N/A   Clear
6:55 PM 60.8 °F 19.9 °F 21% 30.05 in 10.0 mi NNW 6.9 mph - N/A   Clear
7:15 PM 59.2 °F 20.5 °F 22% 30.07 in 10.0 mi NNW 6.9 mph - N/A   Clear
7:35 PM 57.7 °F 21.0 °F 24% 30.08 in 10.0 mi NNW 17.3 mph 21.9 mph N/A   Clear
7:55 PM 60.1 °F 21.4 °F 23% 30.11 in 10.0 mi North 21.9 mph 27.6 mph N/A   Clear
8:15 PM 60.6 °F 21.9 °F 23% 30.14 in 10.0 mi North 26.5 mph 33.4 mph N/A   Clear
8:35 PM 58.5 °F 23.0 °F 26% 30.16 in 10.0 mi North 24.2 mph 32.2 mph N/A   Clear
8:55 PM 57.0 °F 23.7 °F 28% 30.17 in 10.0 mi North 18.4 mph 26.5 mph N/A   Clear
9:15 PM 56.1 °F 23.9 °F 29% 30.19 in 10.0 mi North 19.6 mph 25.3 mph N/A   Clear
9:35 PM 55.0 °F 23.9 °F 30% 30.20 in 10.0 mi North 13.8 mph 21.9 mph N/A   Clear
9:55 PM 54.5 °F 23.4 °F 30% 30.22 in 10.0 mi North 17.3 mph 25.3 mph N/A   Clear
10:15 PM 53.4 °F 22.6 °F 30% 30.24 in 10.0 mi North 16.1 mph - N/A   Clear
10:35 PM 52.3 °F 22.1 °F 31% 30.25 in 10.0 mi North 10.4 mph - N/A   Clear
10:55 PM 51.3 °F 22.1 °F 32% 30.26 in 10.0 mi North 12.7 mph - N/A   Clear
11:15 PM 51.3 °F 21.6 °F 31% 30.27 in 10.0 mi North 16.1 mph 20.7 mph N/A   Clear
11:35 PM 50.9 °F 21.0 °F 31% 30.27 in 10.0 mi North 15.0 mph - N/A   Clear
11:55 PM 50.9 °F 20.8 °F 31% 30.28 in 10.0 mi North 16.1 mph 23.0 mph N/A   Clear